Regional Weather Roundup
Issued by NWS

Home | Current Version | Previous Version | Graphics & Text | Print | Product List | Glossary On
Versions: 1 2 3 4 5 6 7 8 9 10 11 12 13 14 15 16 17 18 19 20 21 22 23 24 25 26 27 28 29 30 31 32 33 34 35 36 37 38 39 40 41 42 43 44 45 46 47 48 49 50
000
ASUS43 KLOT 180908
RWRIL

ILLINOIS REGIONAL WEATHER ROUNDUP
NATIONAL WEATHER SERVICE CHICAGO/ROMEOVILLE IL
300 AM CST SAT NOV 18 2017

NOTE: "FAIR" INDICATES FEW OR NO CLOUDS BELOW 12,000 FEET WITH NO
SIGNIFICANT WEATHER AND/OR OBSTRUCTIONS TO VISIBILITY.

* THESE STATIONS ARE NOT UNDER NWS QUALITY CONTROL. THEY ALSO MAY NOT
  REPORT WEATHER SUCH AS PRECIPITATION OR FOG.

ILZ001-002-007-009-015-016-024-181000-
NORTHWEST ILLINOIS

CITY           SKY/WX    TMP DP  RH WIND       PRES   REMARKS
MOLINE         CLOUDY    46  43  89 N3        29.51F FOG
STERLING*        N/A    N/A N/A N/A MISG        N/A
SAVANNA*       CLOUDY    42  42  98 N7        29.54R FOG
$$

ILZ003-004-008-010-011-017-018-181000-
NORTH CENTRAL ILLINOIS

CITY           SKY/WX    TMP DP  RH WIND       PRES   REMARKS
ROCKFORD       CLOUDY    42  41  96 N8        29.54S FOG
FREEPORT*      CLOUDY    40  40  99 N9        29.55R FOG
ROCHELLE*      CLOUDY    42  42 100 NE5       29.52S FOG
DE KALB*       CLOUDY    42  42  99 NE3       29.52F FOG
PERU*          CLOUDY    46  45  97 NE9       29.51F FOG
$$

ILZ005-006-012>014-019>023-181000-
NORTHEAST ILLINOIS

CITY           SKY/WX    TMP DP  RH WIND       PRES   REMARKS
CHICAGO-OHARE  DRIZZLE   46  44  93 NE5       29.51F FOG
CHICAGO-MIDWAY DRZL/FOG  48  47  96 NE3       29.52F VSB 1
AURORA         CLOUDY    46  45  96 E6        29.51F FOG
LANSING*       CLOUDY    46  46 100 E3        29.53F FOG
JOLIET*        CLOUDY    48  48  98 CALM      29.52F FOG
WAUKEGAN       CLOUDY    43  43 100 N3        29.52F FOG
DUPAGE AIRPORT CLOUDY    45  45 100 E3        29.51F FOG
KANKAKEE*      LGT RAIN  49  46  88 CALM      29.52F
WHEELING       CLOUDY    46  45  96 CALM      29.53F FOG
MORRIS*        CLOUDY    47  46  96 CALM      29.51F FOG
ROMEOVILLE*    CLOUDY    46  45  98 CALM      29.52F FOG
NORTHERLY ISL    N/A     45  43  93 N6          N/A
$$

LMZ740>746-181000-
SOUTHERN LAKE MICHIGAN

STATION/POSITION SKY/WX   TEMP    WIND        PRES    VSBY  WAVE
                          AIR SEA DIR/SP/G                  HT/PER
                          (F)     (DEG/KT/KT) (MB)    (MI)  (FT/S)
SOUTHERN BUOY              46 49  280/  8/ 10 1000.8          4/ 6
HARRISON CRIB              47      30/  5/  5   N/A
BURNHAM HARBOR             45     360/  3/  5   N/A
BURNS HARBOR               47        CALM     1001.0F
MICHIGAN CITY              44     110/  4/  5   N/A
$$

ILZ025>027-034>036-040-047-049-050-058-095>099-181000-
WEST-CENTRAL ILLINOIS

CITY           SKY/WX    TMP DP  RH WIND       PRES   REMARKS
QUINCY         LGT RAIN  52  52 100 N8        29.43F FOG
GALESBURG*     DRIZZLE   50  50 100 NE7       29.49F
MACOMB*        CLOUDY    51  51  99 N7        29.50R FOG
JACKSONVILLE*  PTCLDY    58  56  90 S10       29.44F
PITTSFIELD*    MOCLDY    60  58  93 S6        29.44F
$$

ILZ028>032-037-038-041>044-048-051>054-059>061-181000-
CENTRAL ILLINOIS

CITY           SKY/WX    TMP DP  RH WIND       PRES   REMARKS
PONTIAC        CLOUDY    49  49  99 CALM      29.50F
BLOOMINGTON    CLOUDY    51  50  96 NW3       29.50F
DECATUR        CLOUDY    56  52  86 S9        29.48F
PEORIA         RAIN      50  49  96 N3        29.48F FOG
LACON*         CLOUDY    49  47  93 N3        29.49S
LINCOLN*       CLOUDY    53  51  94 N8        29.47F
SPRINGFIELD    CLOUDY    59  56  89 S12       29.45F
TAYLORVILLE    MOCLDY    59  56  91 S16       29.47F
$$

ILZ033-039-045-046-055>057-062-063-181000-
EAST-CENTRAL ILLINOIS

CITY           SKY/WX    TMP DP  RH WIND       PRES   REMARKS
CHAMPAIGN      CLOUDY    55  51  86 S17G25    29.48F
DANVILLE*      CLOUDY    55  50  85 S15G25    29.47F
RANTOUL*       CLOUDY    54  51  92 S5        29.49F
MATTOON        CLOUDY    58  53  84 S14G21    29.50F
PARIS*         CLOUDY    57  52  84 S18G25    29.52F
$$

ILZ079-100>102-181000-
SOUTHWEST ILLINOIS

CITY           SKY/WX    TMP DP  RH WIND       PRES   REMARKS
ALTON          CLOUDY    61  59  91 S12       29.47F
BELLEVILLE     CLOUDY    62  56  82 S9        29.48F
CAHOKIA*       CLOUDY    60  56  86 SE8       29.46F
SPARTA*        MOCLDY    63  56  80 S16G22    29.53F
$$

ILZ064>066-069>071-074>076-080>082-084>086-088>090-092>094-181000-
SOUTH-CENTRAL ILLINOIS

CITY           SKY/WX    TMP DP  RH WIND       PRES   REMARKS
CARBONDALE     CLOUDY    65  58  78 S24G30    29.56F
CAIRO*         CLOUDY    65  58  76 S13G21    29.62F
EFFINGHAM*     CLOUDY    63  56  79 S13G18    29.54F
MARION         CLOUDY    65  57  75 S17G26    29.58F
MT. VERNON     CLOUDY    63  56  78 S18G24    29.55F
CENTRALIA*     CLOUDY    64  58  78 S18G28    29.52F
SALEM*         CLOUDY    65  56  72 S14G26    29.52F
METROPOLIS*    CLOUDY    66  57  72 S13G20    29.64F
$$

ILZ067-068-072-073-078-083-087-091-181000-
SOUTHEAST ILLINOIS

CITY           SKY/WX    TMP DP  RH WIND       PRES   REMARKS
LAWRENCEVILLE  CLOUDY    61  52  72 S21       29.58F
FLORA*         CLOUDY    62  55  79 S13       29.54F
FAIRFIELD*     CLOUDY    62  55  79 S8        29.56F
HARRISBURG*    CLOUDY    65  57  74 S18G24    29.59F
ROBINSON*      CLOUDY    59  51  76 S17       29.56F
CARMI*         CLOUDY    61  55  80 S17       29.58F
$$

ABBREVIATIONS USED IN REMARKS
   TC - TEMPERATURE IN CELSIUS
  WCI - WIND CHILL INDEX
   HX - HEAT INDEX
  VSB - VISIBILITY
$$





USA.gov is the U.S. government's official web portal to all federal, state and local government web resources and services.